Location: Ward Pound Ridge Reservation
(41.2500°N, 73.6000°W)
Time: 09:18:05
(UTC-05:00)

Tiangong 2 - Pass Details

Date: 13 October 2017
Orbit: 386 x 390 km, 42.8° (Epoch: 11 December)

Event Time Altitude Azimuth Distance (km) Brightness Sun altitude
Exits shadow 05:56:43 26° 282° (WNW) 804 2.1 -13.5°
Maximum altitude 05:58:18 64° 356° (N) 435 1.2 -13.2°
Drops below altitude 10° 06:01:30 10° 80° (E) 1,424 5.4 -12.6°
Sets 06:03:36 0° 83° (E) 2,281 7.0 -12.2°
